Theta_e
300 300 300 299 299 299 300 300 299 299 299 299 299 299 299 298 299 302 300 299 299 298 298 298 298 298 298 302 303 303 303 303 303 303 304 305 305 305 304 305 305 306 307 307 307
300 300 299 299 299 299 299 300 299 299 299 299 299 299 299 298 301 299 299 298 298 298 299 298 300 299 300 301 302 303 303 302 303 303 303 303 304 303 303 303 304 304 304 304 306
300 300 299 299 299 299 300 300 299 299 299 299 299 299 298 300 302 299 298 298 298 299 299 299 300 300 300 301 302 302 302 302 302 302 302 303 302 301 301 302 302 302 302 302 302
299 299 299 299 299 299 299 299 299 299 299 300 299 299 299 299 302 298 298 298 298 299 300 300 301 300 301 301 301 301 301 301 301 301 301 301 300 301 301 301 301 301 301 300 300
299 299 299 299 299 299 300 300 299 299 300 300 299 299 299 299 299 298 298 297 298 298 299 300 301 301 301 301 301 301 301 300 300 300 300 300 301 301 301 300 300 300 300 300 300
299 299 299 299 299 299 300 299 300 300 300 300 299 299 299 301 299 298 297 298 298 298 299 299 300 300 300 300 301 300 300 300 300 300 300 301 301 300 300 300 300 300 300 300 300
299 299 299 299 299 300 300 300 300 300 300 300 300 299 299 299 298 298 297 298 297 297 299 299 299 300 300 301 300 301 302 301 301 301 301 301 301 301 301 301 301 301 301 300 300
299 299 299 299 299 300 300 300 300 300 299 299 299 299 299 298 298 297 297 297 297 296 298 298 299 300 300 300 300 301 301 302 301 301 301 301 302 302 301 301 301 301 301 301 301
299 299 299 299 299 300 300 300 300 300 299 299 299 300 300 298 297 297 297 297 297 298 298 298 299 300 300 301 302 302 302 301 301 301 301 301 302 302 301 301 301 301 301 301 301
299 299 299 299 299 300 299 300 300 300 299 299 299 301 299 297 297 297 297 296 297 297 298 300 300 301 301 302 304 302 301 301 301 301 301 301 302 302 301 301 301 301 301 302 302
299 299 299 299 299 299 299 300 300 299 299 299 298 298 297 297 297 297 296 297 297 298 299 298 300 301 300 300 299 300 302 302 301 301 301 302 302 302 302 302 302 301 302 301 301
299 299 299 299 300 299 298 299 299 299 301 298 297 298 297 296 297 297 296 297 297 299 299 300 300 299 299 299 300 301 301 302 302 301 301 301 302 303 301 300 300 301 301 301 301
299 299 299 299 300 299 297 297 299 300 301 297 297 297 296 296 297 297 296 296 298 299 298 299 299 298 299 299 299 299 300 301 301 300 300 301 303 302 301 299 297 296 296 297 300
299 299 299 299 299 298 296 297 299 299 306 299 298 297 296 296 297 296 296 295 298 298 298 298 297 298 299 299 298 299 298 297 298 299 301 301 303 300 298 298 296 294 294 294 295
300 299 299 299 298 297 296 297 299 298 315 300 297 296 296 297 296 297 295 296 297 297 297 298 297 298 298 298 298 298 297 296 297 299 301 302 303 299 296 295 293 293 291 292 293
300 300 299 299 299 296 296 298 298 314 309 299 296 296 297 296 296 296 296 296 295 296 297 297 295 297 298 297 297 296 295 297 302 302 304 304 303 297 294 292 291 290 289 291 293
300 300 300 299 298 296 296 297 314 310 299 300 296 296 296 296 297 296 296 297 297 298 298 297 297 297 297 298 296 296 295 298 301 303 305 302 303 297 292 290 290 287 287 300 296
300 299 299 299 297 297 296 305 308 295 295 294 296 295 296 295 297 296 297 298 297 297 297 296 299 297 297 296 295 295 293 295 297 299 300 301 298 299 290 288 287 285 297 300 300
300 300 299 299 297 297 298 309 306 296 294 295 296 298 298 295 295 296 297 297 297 297 297 297 298 296 297 297 293 293 293 293 293 296 300 299 294 295 288 286 285 284 296 299 300
300 299 299 298 297 297 305 303 296 292 294 294 298 295 297 297 297 297 298 296 297 296 295 296 296 296 296 296 294 292 291 294 294 296 299 299 293 290 286 284 283 283 288 295 296
300 299 299 297 297 297 308 298 291 291 294 295 295 296 295 296 295 296 297 297 296 296 296 296 295 298 297 297 294 292 291 291 292 294 296 297 295 286 283 282 282 283 286 292 293
299 302 298 297 300 288 300 290 292 294 294 295 295 295 295 294 295 295 296 296 295 295 297 296 297 298 296 296 295 292 290 290 294 292 291 293 294 285 283 281 281 281 283 288 289
299 298 298 297 308 300 290 293 294 294 295 295 296 296 291 294 295 292 295 295 294 296 296 297 299 301 299 297 296 293 290 289 290 290 288 293 294 286 282 281 279 280 282 284 286
298 304 296 296 294 296 294 294 293 293 294 295 296 295 291 291 291 293 295 295 294 295 295 294 296 296 300 298 296 293 290 289 288 290 288 287 286 284 281 280 279 278 280 281 283
297 296 294 305 298 295 295 294 295 294 293 295 295 294 294 293 290 291 293 295 295 294 294 294 297 293 293 293 296 292 290 288 287 286 288 286 285 283 280 279 278 277 278 279 280
298 296 293 292 294 296 296 296 295 294 294 294 293 292 292 294 296 294 294 295 295 294 295 293 299 292 294 291 291 295 292 290 287 286 286 286 286 284 279 278 276 276 277 277 278
298 297 297 293 294 297 298 295 295 294 293 293 294 293 291 293 292 292 292 292 292 293 294 295 295 297 303 295 295 299 293 290 288 285 285 287 285 283 280 277 276 275 276 276 276
Wind_Speed
10 11 13 14 16 17 19 22 21 21 24 25 21 15 10 13 3 4 4 6 10 13 14 12 10 9 7 2 1 2 6 12 21 17 16 3 6 7 6 13 17 14 17 17 23
9 12 14 15 16 19 21 22 21 24 26 22 17 11 11 7 7 6 5 11 13 15 14 13 10 10 4 3 2 5 6 13 9 11 13 12 13 14 12 18 21 25 28 20 17
10 12 14 16 17 20 22 23 22 26 27 18 14 10 10 4 6 4 9 13 17 16 12 11 8 5 3 3 6 4 12 14 16 15 17 20 22 22 20 25 20 24 25 27 24
11 12 15 17 19 21 24 24 24 28 19 17 9 9 3 6 1 9 14 17 19 15 13 9 2 3 3 6 8 9 17 18 18 17 17 19 25 22 23 26 26 27 30 31 29
11 13 15 18 20 22 25 23 25 26 17 9 9 5 5 5 5 15 21 18 15 13 10 7 7 4 7 5 8 16 15 17 18 23 27 23 23 28 29 28 29 32 30 32 32
12 14 16 19 21 23 26 23 27 20 14 10 7 6 4 3 6 18 22 14 10 11 10 9 6 7 11 12 11 5 7 14 18 25 29 26 27 27 27 30 29 27 30 30 30
13 15 17 19 22 24 24 25 25 15 9 7 9 6 11 5 13 23 16 11 13 13 15 12 12 8 3 8 11 12 15 16 21 27 15 13 16 16 20 17 21 23 25 26 27
13 16 19 20 22 24 22 26 18 15 10 5 11 8 5 13 18 20 15 15 24 19 9 9 9 8 9 9 10 12 11 8 1 7 13 6 18 19 22 22 23 22 25 24 20
14 17 19 22 24 25 24 25 13 8 6 5 11 6 4 13 27 13 20 25 28 4 9 7 4 4 3 7 10 6 10 14 17 5 11 12 16 13 14 21 26 25 22 22 19
14 17 20 23 25 24 26 19 13 6 5 4 11 3 9 19 25 13 23 30 8 12 3 2 1 4 4 6 7 14 19 19 19 7 11 19 26 27 29 24 26 28 28 27 26
14 17 20 23 25 22 25 11 8 2 11 8 4 1 10 24 12 22 31 20 11 4 6 5 5 5 8 9 13 15 16 21 23 19 14 17 20 23 22 19 20 24 25 27 29
14 17 20 23 25 20 23 12 7 2 3 8 8 5 15 20 7 20 30 12 7 7 9 5 3 9 13 10 14 17 20 23 14 3 13 16 21 17 11 14 16 13 17 20 22
13 16 19 22 20 22 21 19 10 4 1 5 8 6 13 15 3 16 26 10 6 9 13 5 7 10 8 10 16 18 19 17 16 20 20 18 12 6 5 10 19 21 17 15 14
13 15 18 21 12 22 16 19 7 3 2 10 7 8 17 12 1 18 24 9 4 8 8 2 6 9 12 13 19 18 12 24 24 15 6 3 3 11 15 14 21 27 26 24 20
13 15 17 18 16 18 19 14 3 1 3 10 5 8 15 10 11 19 17 9 7 13 4 6 9 11 10 17 21 14 28 24 22 15 10 7 6 5 16 25 29 28 36 31 23
12 14 16 18 14 20 18 9 1 1 3 5 5 10 11 8 5 13 13 16 3 6 5 5 10 4 6 18 17 23 21 13 2 4 3 1 3 5 11 23 28 31 40 34 22
11 13 15 16 13 19 16 4 3 6 4 9 5 9 9 8 5 11 11 15 14 9 13 10 5 8 8 17 13 18 19 5 3 3 5 11 3 6 19 26 21 28 44 15 5
10 12 13 10 15 16 12 1 8 1 3 2 7 9 6 10 4 11 12 14 12 12 7 6 5 8 12 12 19 18 10 4 4 5 5 7 8 3 23 29 30 40 23 18 13
9 11 10 7 15 12 4 5 2 4 1 5 6 4 5 4 5 9 10 10 8 11 7 7 5 6 9 8 21 12 12 7 4 6 3 4 7 2 28 31 38 40 33 27 25
8 9 2 9 11 6 4 3 2 1 2 1 5 3 4 7 10 12 12 4 10 14 7 3 7 4 4 7 16 9 11 2 3 6 5 5 5 10 27 27 30 30 36 33 32
6 3 1 9 6 3 3 2 3 3 2 1 1 1 3 4 4 5 7 6 8 13 7 4 1 9 4 13 19 14 9 4 1 4 3 5 4 9 17 18 23 25 35 32 32
2 1 3 7 2 3 2 4 2 3 2 2 2 1 2 1 4 3 4 3 11 13 9 2 3 5 2 4 17 22 12 5 3 5 4 3 4 13 16 19 25 30 33 33 32
2 1 1 2 3 2 1 1 1 3 3 4 3 3 1 1 3 3 3 4 9 11 9 7 4 6 3 2 11 15 21 14 1 1 9 4 3 14 22 23 28 29 34 33 33
2 1 2 4 6 5 4 2 2 1 2 2 3 3 2 1 2 5 4 3 10 11 8 1 2 4 7 4 6 15 21 20 8 5 4 4 14 19 21 20 26 34 33 32 31
3 1 3 2 2 5 2 3 3 3 2 3 2 4 2 1 1 3 4 6 1 9 6 2 4 1 1 4 11 14 14 17 16 9 4 9 10 16 15 17 24 24 31 29 32
4 5 4 4 5 5 1 4 4 3 5 3 3 3 4 3 4 2 3 2 2 8 6 4 1 0 2 3 5 16 16 14 10 8 3 7 7 12 15 20 28 30 27 28 30
11 7 3 3 3 3 3 5 5 5 4 2 5 4 3 6 6 9 7 7 6 4 5 6 3 2 5 3 4 7 12 13 7 9 3 8 6 11 11 19 22 24 25 27 27
Wind_Direction
11 10 1 0 355 352 351 348 344 341 339 340 339 334 337 333 344 111 35 9 358 344 334 331 328 326 339 29 78 142 245 258 259 274 276 289 284 284 279 276 277 262 272 281 302
4 358 356 356 353 349 345 344 342 339 341 343 336 328 331 341 121 80 35 9 351 340 335 343 346 352 339 309 225 222 246 267 310 283 289 297 290 295 281 274 262 268 273 281 286
352 353 352 351 350 345 344 342 341 340 340 339 329 329 329 119 117 40 6 353 344 335 329 330 328 348 310 261 204 204 244 269 264 266 279 282 274 275 269 265 274 276 280 283 285
347 352 349 348 347 344 341 342 340 339 340 335 329 342 52 124 69 18 346 335 335 322 314 309 276 289 256 246 225 249 242 251 265 269 265 266 286 272 262 274 283 280 280 282 284
344 348 347 346 345 343 341 341 339 339 341 339 340 41 115 94 75 355 340 326 321 318 316 293 272 264 256 247 260 250 263 268 271 269 268 277 263 266 274 281 273 272 271 274 277
341 343 346 345 345 344 341 341 339 339 339 343 13 10 116 79 17 346 336 337 324 318 303 289 278 287 281 260 253 274 269 277 274 269 273 274 274 276 272 267 271 270 268 265 266
338 340 343 345 344 345 341 340 339 342 339 22 14 90 92 52 347 334 334 351 341 314 296 284 279 249 288 272 274 280 282 278 269 268 275 288 266 248 268 274 273 273 274 270 263
335 340 341 343 344 346 344 343 342 345 349 86 39 124 96 10 344 340 334 333 333 312 284 287 277 256 253 279 280 280 273 285 166 286 272 259 276 271 277 273 272 274 270 267 262
336 338 340 344 344 347 346 347 349 3 26 67 29 110 71 353 345 347 342 332 335 37 315 295 274 254 256 273 287 227 295 301 303 294 273 247 283 278 283 274 280 275 275 266 255
334 337 341 343 343 346 352 352 353 50 27 74 29 69 15 340 342 350 347 337 346 338 48 72 288 269 251 284 297 310 304 295 289 271 285 274 275 283 284 278 273 269 267 262 262
331 338 343 341 344 346 357 2 3 5 60 69 50 37 320 343 1 1 352 353 355 12 5 13 292 303 352 320 296 294 284 284 282 289 285 282 286 291 302 294 280 272 266 263 266
330 339 341 343 344 347 350 29 20 314 105 43 29 43 352 347 329 356 359 8 356 347 349 334 25 7 333 316 290 287 296 292 287 274 294 294 293 307 28 36 18 345 304 274 271
330 337 343 344 342 346 356 11 15 84 101 36 22 7 353 343 348 348 360 353 349 351 349 319 333 342 300 326 330 309 298 292 297 310 291 272 263 57 28 23 10 5 346 327 309
326 333 344 348 349 343 351 353 15 108 121 354 353 3 353 353 70 358 1 4 348 341 342 311 321 325 334 329 337 310 316 307 293 297 277 19 287 51 356 353 351 345 339 325 311
323 335 342 348 339 343 339 344 19 136 51 350 348 346 354 43 320 358 4 1 349 333 300 350 318 327 326 341 329 301 308 303 289 272 264 239 223 41 14 353 343 336 328 316 304
318 330 338 342 340 337 340 346 78 352 10 5 344 357 2 20 4 334 1 7 295 328 316 303 296 270 330 333 329 340 319 311 344 192 186 205 252 44 16 346 336 332 320 310 291
315 325 336 338 336 336 340 348 21 75 12 327 333 341 343 337 348 4 358 21 29 348 4 329 285 339 312 329 341 354 352 6 53 13 40 6 31 64 5 352 339 326 318 335 278
312 322 333 337 337 338 344 5 59 104 282 348 332 325 357 355 12 347 3 13 31 6 318 342 351 10 346 23 342 351 11 18 7 357 329 351 6 76 5 342 339 344 349 51 60
309 321 332 339 338 341 0 46 178 182 264 312 297 22 333 4 352 350 9 3 10 5 1 338 298 332 40 27 14 340 3 312 261 225 251 20 8 165 349 346 350 347 6 27 37
310 322 337 337 343 359 67 122 143 119 184 73 34 33 317 328 349 3 359 20 355 4 354 329 292 15 31 346 26 6 353 3 5 12 10 31 46 346 346 341 338 347 352 16 27
315 323 295 340 356 39 85 129 201 187 180 54 118 293 270 314 333 333 319 322 1 343 337 307 222 327 4 23 21 12 12 348 285 10 350 333 57 2 345 341 334 339 350 11 23
275 5 315 345 30 46 94 165 153 151 169 139 119 206 246 355 298 298 319 278 353 342 334 336 294 312 17 198 33 31 9 349 344 15 17 295 74 18 356 349 345 345 355 11 25
243 222 317 360 116 87 77 128 222 147 187 178 145 216 89 228 316 262 291 299 351 3 355 344 7 333 149 179 35 25 15 19 76 38 25 339 21 7 359 356 352 359 3 14 25
211 70 81 83 89 118 142 148 169 228 184 192 119 172 164 156 208 299 292 295 341 354 1 351 46 39 50 44 351 15 22 26 42 49 335 23 321 348 359 351 352 1 7 15 26
193 160 156 149 81 106 110 142 157 182 212 217 154 239 184 205 265 244 277 307 329 2 16 41 40 80 197 287 50 44 28 28 48 26 33 340 5 358 356 347 354 9 11 16 27
192 161 124 98 121 127 175 194 186 175 160 215 194 175 197 204 216 259 296 328 352 331 10 3 57 193 140 272 253 45 31 33 43 20 19 360 39 355 358 11 11 7 9 18 27
198 180 154 137 131 156 192 170 196 161 209 197 178 163 217 246 250 261 263 273 271 302 331 349 335 1 40 26 195 23 18 30 59 32 317 40 339 342 12 29 9 1 15 26 34